Phoenix Deer Valley, AZ

12:39 PM MST on August 18, 2017 (GMT -0700)
Phoenix-Deer Valley Municipal

Weather History for KDVT - December, 2012

Change the Weather History Date:

Saturday, December 29, 2012

  Actual Average Record
Temperature  
Mean Temperature 48 °F -  
Max Temperature 60 °F 61 °F 75 °F (2016)
Min Temperature 37 °F 41 °F 28 °F (2003)
Degree Days  
Heating Degree Days 16    
Moisture  
Dew Point 23 °F    
Average Humidity 38    
Maximum Humidity 55    
Minimum Humidity 22    
Precipitation  
Precipitation 0.00 in - - ()
Sea Level Pressure  
Sea Level Pressure 30.01 in    
Wind  
Wind Speed 5 mph (East)    
Max Wind Speed 12 mph    
Max Gust Speed 17 mph    
Visibility 10 miles    
Events      
Averages and records for this station are not official NWS values.
T = Trace of Precipitation, MM = Missing Value Source: NWS Daily Summary

Daily Weather History Graph

Daily Weather History Graph

Search for Another Location

Airport or City:

Trip Planner

Search our weather history database for the weather conditions in past years. The results will help you decide how hot, cold, wet, or windy it might be!

Date:

Astronomy

Dec. 29, 2012 Rise Set
Actual Time 7:32 AM MST 5:29 PM MST
Civil Twilight 7:04 AM MST 5:56 PM MST
Nautical Twilight 6:33 AM MST 6:27 PM MST
Astronomical Twilight 6:03 AM MST 6:58 PM MST
Moon 7:00 PM MST (12/29) 8:12 AM MST (12/29)
Length of Visible Light 10h 51m
Length of Day
9h 56m
Full, 98% of the Moon is Illuminated
Dec 29
Full
Jan 4
Last Quarter
Jan 11
New
Jan 18
First Quarter
Jan 26
Full

Hourly Weather History & Observations

Time (MST) Temp. Windchill Dew Point Humidity Pressure Visibility Wind Dir Wind Speed Gust Speed Precip Events Conditions
12:53 AM 45.0 °F 43.5 °F 26.1 °F 48% 30.09 in 10.0 mi East 3.5 mph - N/A   Clear
1:53 AM 42.1 °F 39.2 °F 26.1 °F 53% 30.10 in 10.0 mi ENE 4.6 mph - N/A   Clear
2:53 AM 44.1 °F 40.8 °F 25.0 °F 47% 30.10 in 10.0 mi ENE 5.8 mph - N/A   Clear
3:53 AM 39.9 °F 34.5 °F 25.0 °F 55% 30.08 in 10.0 mi NNE 8.1 mph - N/A   Clear
4:53 AM 39.9 °F - 21.9 °F 49% 30.06 in 10.0 mi Calm Calm - N/A   Clear
5:53 AM 42.1 °F - 19.9 °F 41% 30.06 in 10.0 mi Calm Calm - N/A   Clear
6:53 AM 37.0 °F 34.5 °F 21.0 °F 52% 30.08 in 10.0 mi NNE 3.5 mph - N/A   Clear
7:53 AM 43.0 °F 39.5 °F 17.1 °F 35% 30.09 in 10.0 mi East 5.8 mph - N/A   Clear
8:53 AM 46.0 °F 43.9 °F 19.9 °F 35% 30.10 in 10.0 mi East 4.6 mph - N/A   Clear
9:53 AM 53.1 °F - 19.9 °F 27% 30.08 in 10.0 mi East 11.5 mph 17.3 mph N/A   Clear
10:53 AM 55.9 °F - 19.9 °F 25% 30.07 in 10.0 mi East 10.4 mph - N/A   Clear
11:53 AM 57.0 °F - 19.0 °F 23% 30.03 in 10.0 mi ESE 11.5 mph - N/A   Clear
12:53 PM 57.9 °F - 19.9 °F 23% 29.99 in 10.0 mi SSE 8.1 mph - N/A   Clear
1:53 PM 59.0 °F - 21.0 °F 23% 29.96 in 10.0 mi SE 6.9 mph - N/A   Clear
2:53 PM 60.1 °F - 21.0 °F 22% 29.94 in 10.0 mi SE 8.1 mph - N/A   Clear
4:53 PM 59.0 °F - 23.0 °F 25% 29.94 in 10.0 mi Calm Calm - N/A   Clear
5:53 PM 55.0 °F - 25.0 °F 31% 29.93 in 10.0 mi North 3.5 mph - N/A   Clear
6:53 PM 51.1 °F - 26.1 °F 38% 29.94 in 10.0 mi Calm Calm - N/A   Clear
7:53 PM 48.9 °F - 26.1 °F 41% 29.92 in 10.0 mi Calm Calm - N/A   Clear
8:53 PM 48.9 °F - 25.0 °F 39% 29.91 in 10.0 mi East 4.6 mph - N/A   Clear
9:53 PM 48.0 °F - 25.0 °F 41% 29.93 in 10.0 mi Calm Calm - N/A   Clear
10:53 PM 45.0 °F - 26.1 °F 48% 29.93 in 10.0 mi Calm Calm - N/A   Clear
11:53 PM 46.0 °F 44.8 °F 26.1 °F 46% 29.92 in 10.0 mi NNE 3.5 mph - N/A   Clear